When you browse on this site, cookies collect data to enhance your experience and personalize the content and advertising you see.
Visit our Privacy Policy to learn more. By continuing to use the site, you agree to this use of cookies and data.
  • In Hungary
  • List of Countries
  • For 7 days
  • Water Temperature
  • Satellite Maps
  • Weather Map
  • News
  • Weather Widgets
  • user-avatar
    Login

    Hourly Weather Moroczyn

    Today, 19 January, Saturday

    Time Temperature Precipitation Wind Pressure Humidity
    00:00 -5°C° 0 mm 3 mps 746 mmHg 87%
    01:00 -5°C° 0 mm 3 mps 747 mmHg 87%
    02:00 -5°C° 0 mm 2 mps 747 mmHg 90%
    03:00 -5°C° 0 mm 2 mps 747 mmHg 90%
    04:00 -6°C° 0 mm 3 mps 747 mmHg 90%
    05:00 -6°C° 0 mm 3 mps 748 mmHg 91%
    06:00 -6°C° 0 mm 3 mps 748 mmHg 91%
    07:00 -6°C° 0 mm 3 mps 748 mmHg 91%
    08:00 -6°C° 0 mm 3 mps 748 mmHg 91%
    09:00 -6°C° 0 mm 3 mps 749 mmHg 89%
    10:00 -5°C° 0 mm 3 mps 749 mmHg 86%
    11:00 -4°C° 0 mm 3 mps 749 mmHg 83%
    12:00 -4°C° 0 mm 3 mps 749 mmHg 81%
    13:00 -2°C° 0 mm 3 mps 749 mmHg 79%
    14:00 -2°C° 0 mm 2 mps 749 mmHg 77%
    15:00 -3°C° 0 mm 2 mps 749 mmHg 79%
    16:00 -3°C° 0 mm 2 mps 749 mmHg 82%
    17:00 -2°C° 0 mm 1 mps 749 mmHg 84%
    18:00 -2°C° 0 mm 1 mps 749 mmHg 85%
    19:00 -3°C° 0 mm 1 mps 749 mmHg 86%
    20:00 -3°C° 0 mm 1 mps 749 mmHg 87%
    21:00 -3°C° 0 mm 1 mps 749 mmHg 87%
    22:00 -3°C° 0 mm 1 mps 749 mmHg 88%
    23:00 -6°C° 0 mm 2 mps 749 mmHg 89%

    Tomorrow, 20 January, Sunday

    Time Temperature Precipitation Wind Pressure Humidity
    00:00 -6°C° 0 mm 2 mps 749 mmHg 89%
    01:00 -6°C° 0 mm 2 mps 749 mmHg 89%
    02:00 -6°C° 0 mm 2 mps 748 mmHg 90%
    03:00 -7°C° 0 mm 2 mps 748 mmHg 89%
    04:00 -7°C° 0 mm 2 mps 748 mmHg 89%
    05:00 -7°C° 0 mm 2 mps 747 mmHg 89%
    06:00 -7°C° 0 mm 2 mps 747 mmHg 90%
    07:00 -7°C° 0 mm 2 mps 747 mmHg 90%
    08:00 -7°C° 0 mm 1 mps 747 mmHg 91%
    09:00 -6°C° 0 mm 1 mps 747 mmHg 90%
    10:00 -4°C° 0 mm 1 mps 747 mmHg 89%
    11:00 -3°C° 0 mm 1 mps 747 mmHg 87%
    12:00 -3°C° 0 mm 1 mps 747 mmHg 86%
    13:00 -3°C° 0 mm 0 mps 746 mmHg 85%
    14:00 -3°C° 0 mm 0 mps 746 mmHg 83%
    15:00 -3°C° 0 mm 0 mps 746 mmHg 85%
    16:00 -4°C° 0 mm 0 mps 746 mmHg 87%
    17:00 -4°C° 0 mm 1 mps 746 mmHg 89%
    18:00 -4°C° 0 mm 1 mps 746 mmHg 89%
    19:00 -4°C° 0 mm 1 mps 746 mmHg 89%
    20:00 -4°C° 0 mm 1 mps 746 mmHg 89%
    21:00 -4°C° 0 mm 1 mps 747 mmHg 88%
    22:00 -6°C° 0 mm 1 mps 747 mmHg 87%
    23:00 -6°C° 0 mm 1 mps 747 mmHg 86%

    Day after tomorrow, 21 January, Monday

    Time Temperature Precipitation Wind Pressure Humidity
    00:00 -6°C° 0 mm 1 mps 747 mmHg 87%
    01:00 -7°C° 0 mm 2 mps 747 mmHg 87%
    02:00 -7°C° 0 mm 2 mps 748 mmHg 88%
    03:00 -7°C° 0 mm 2 mps 748 mmHg 89%
    04:00 -7°C° 0 mm 2 mps 748 mmHg 90%
    05:00 -7°C° 0 mm 2 mps 748 mmHg 91%
    06:00 -6°C° 0 mm 2 mps 748 mmHg 92%
    07:00 -4°C° 0 mm 1 mps 749 mmHg 93%
    08:00 -3°C° 0 mm 1 mps 749 mmHg 94%
    09:00 -3°C° 0 mm 1 mps 749 mmHg 92%
    10:00 -2°C° 0 mm 1 mps 749 mmHg 90%
    11:00 -2°C° 0 mm 1 mps 750 mmHg 88%
    12:00 -2°C° 0 mm 1 mps 750 mmHg 86%
    13:00 -2°C° 0 mm 1 mps 749 mmHg 84%
    14:00 -1°C° 0 mm 1 mps 749 mmHg 82%
    15:00 -2°C° 0 mm 1 mps 749 mmHg 84%
    16:00 -2°C° 0 mm 1 mps 749 mmHg 86%
    17:00 -2°C° 0 mm 1 mps 749 mmHg 88%
    18:00 -3°C° 0 mm 1 mps 748 mmHg 88%
    19:00 -3°C° 0 mm 1 mps 748 mmHg 88%
    20:00 -3°C° 0 mm 1 mps 748 mmHg 88%
    21:00 -5°C° 0 mm 2 mps 748 mmHg 87%
    22:00 -5°C° 0 mm 2 mps 748 mmHg 87%
    23:00 -5°C° 0 mm 2 mps 748 mmHg 86%

    22 January, Tuesday

    Time Temperature Precipitation Wind Pressure Humidity
    00:00 -5°C° 0 mm 2 mps 747 mmHg 87%
    01:00 -5°C° 0 mm 2 mps 747 mmHg 87%
    02:00 -5°C° 0 mm 2 mps 746 mmHg 87%
    03:00 -6°C° 0 mm 2 mps 746 mmHg 87%
    04:00 -6°C° 0 mm 2 mps 745 mmHg 88%
    05:00 -6°C° 0 mm 2 mps 745 mmHg 88%
    06:00 -6°C° 0 mm 2 mps 744 mmHg 89%
    07:00 -7°C° 0 mm 2 mps 744 mmHg 90%
    08:00 -7°C° 0 mm 2 mps 744 mmHg 91%
    09:00 -7°C° 0 mm 2 mps 744 mmHg 90%
    10:00 -6°C° 0 mm 2 mps 743 mmHg 89%
    11:00 -6°C° 0 mm 2 mps 743 mmHg 88%
    12:00 -5°C° 0 mm 2 mps 743 mmHg 85%
    13:00 -5°C° 0 mm 2 mps 742 mmHg 83%
    14:00 -4°C° 0 mm 2 mps 742 mmHg 81%
    15:00 -2°C° 0 mm 1 mps 742 mmHg 83%
    16:00 -3°C° 0 mm 1 mps 741 mmHg 85%
    17:00 -3°C° 0 mm 1 mps 741 mmHg 87%
    18:00 -3°C° 0 mm 1 mps 741 mmHg 88%
    19:00 -4°C° 0 mm 1 mps 741 mmHg 88%
    20:00 -4°C° 0 mm 1 mps 741 mmHg 89%
    21:00 -5°C° 0 mm 0 mps 741 mmHg 89%
    22:00 -6°C° 0 mm 0 mps 741 mmHg 89%
    23:00 -6°C° 0 mm 0 mps 741 mmHg 90%

    23 January, Wednesday

    Time Temperature Precipitation Wind Pressure Humidity
    00:00 -6°C° 0 mm 0 mps 741 mmHg 90%
    01:00 -6°C° 0 mm 1 mps 741 mmHg 90%
    02:00 -6°C° 0 mm 1 mps 741 mmHg 91%
    03:00 -7°C° 0 mm 1 mps 741 mmHg 92%
    04:00 -7°C° 0 mm 1 mps 741 mmHg 92%
    05:00 -7°C° 0 mm 1 mps 741 mmHg 93%
    06:00 -8°C° 0 mm 2 mps 741 mmHg 93%
    07:00 -8°C° 0 mm 2 mps 741 mmHg 94%
    08:00 -9°C° 0 mm 2 mps 741 mmHg 94%
    09:00 -8°C° 0 mm 2 mps 742 mmHg 92%
    10:00 -7°C° 0 mm 2 mps 742 mmHg 90%
    11:00 -7°C° 0 mm 2 mps 742 mmHg 89%
    12:00 -6°C° 0 mm 2 mps 742 mmHg 88%
    13:00 -6°C° 0 mm 3 mps 742 mmHg 87%
    14:00 -6°C° 0 mm 3 mps 742 mmHg 86%
    15:00 -6°C° 0 mm 3 mps 742 mmHg 87%
    16:00 -7°C° 0 mm 3 mps 742 mmHg 89%
    17:00 -7°C° 0 mm 3 mps 743 mmHg 90%
    18:00 -7°C° 0 mm 3 mps 743 mmHg 89%
    19:00 -7°C° 0 mm 3 mps 743 mmHg 89%
    20:00 -9°C° 0 mm 4 mps 744 mmHg 88%
    21:00 -8°C° 0 mm 3 mps 744 mmHg 87%
    22:00 -8°C° 0 mm 3 mps 744 mmHg 86%
    23:00 -8°C° 0 mm 3 mps 745 mmHg 85%

    24 January, Thursday

    Time Temperature Precipitation Wind Pressure Humidity
    00:00 -8°C° 0 mm 3 mps 745 mmHg 85%
    01:00 -9°C° 0 mm 3 mps 744 mmHg 85%
    02:00 -9°C° 0 mm 3 mps 744 mmHg 85%
    03:00 -8°C° 0 mm 2 mps 744 mmHg 85%
    04:00 -8°C° 0 mm 2 mps 744 mmHg 85%
    05:00 -8°C° 0 mm 2 mps 744 mmHg 85%
    06:00 -8°C° 0 mm 2 mps 745 mmHg 85%
    07:00 -8°C° 0 mm 2 mps 745 mmHg 85%
    08:00 -9°C° 0 mm 2 mps 745 mmHg 85%
    09:00 -8°C° 0 mm 2 mps 745 mmHg 83%
    10:00 -8°C° 0 mm 2 mps 746 mmHg 82%
    11:00 -8°C° 0 mm 2 mps 746 mmHg 80%
    12:00 -8°C° 0 mm 2 mps 745 mmHg 80%
    13:00 -7°C° 0 mm 2 mps 745 mmHg 79%
    14:00 -7°C° 0 mm 2 mps 745 mmHg 78%
    15:00 -7°C° 0 mm 2 mps 745 mmHg 80%
    16:00 -8°C° 0 mm 2 mps 745 mmHg 82%
    17:00 -8°C° 0 mm 2 mps 745 mmHg 85%
    18:00 -9°C° 0 mm 3 mps 745 mmHg 86%
    19:00 -10°C° 0 mm 3 mps 745 mmHg 88%
    20:00 -12°C° 0 mm 3 mps 745 mmHg 89%
    21:00 -12°C° 0 mm 3 mps 746 mmHg 90%
    22:00 -10°C° 0 mm 2 mps 746 mmHg 91%
    23:00 -12°C° 0 mm 2 mps 746 mmHg 92%
    Show more